Weather History for KPCZ - March, 2013

Change the Weather History Date:

Tuesday, March 19, 2013

  Actual Average Record
Temperature  
Mean Temperature 22 °F -  
Max Temperature 30 °F - - ()
Min Temperature 15 °F - - ()
Degree Days  
Heating Degree Days 42    
Moisture  
Dew Point 8 °F    
Average Humidity 58    
Maximum Humidity 80    
Minimum Humidity 37    
Precipitation  
Precipitation 0.00 in - - ()
Sea Level Pressure  
Sea Level Pressure 29.79 in    
Wind  
Wind Speed 18 mph (West)    
Max Wind Speed 26 mph    
Max Gust Speed 38 mph    
Visibility 6 miles    
Events Snow    
T = Trace of Precipitation, MM = Missing Value Source: NWS Daily Summary

Daily Weather History Graph

Daily Weather History Graph

Search for Another Location

Airport or City:

Trip Planner

Search our weather history database for the weather conditions in past years. The results will help you decide how hot, cold, wet, or windy it might be!

Date:

Astronomy

Mar. 19, 2013 Rise Set
Actual Time 7:00 AM CDT 7:07 PM CDT
Civil Twilight 6:31 AM CDT 7:36 PM CDT
Nautical Twilight 5:57 AM CDT 8:10 PM CDT
Astronomical Twilight 5:23 AM CDT 8:45 PM CDT
Moon 11:38 AM CDT (3/19) 2:06 AM CDT (3/19)
Length of Visible Light 13h 04m
Length of Day
12h 07m
Waxing Crescent, 50% of the Moon is Illuminated
Mar 19
Waxing Crescent
Mar 19
First Quarter
Mar 27
Full
Apr 2
Last Quarter
Apr 10
New

Hourly Weather History & Observations

Time (CDT) Temp. Windchill Dew Point Humidity Pressure Visibility Wind Dir Wind Speed Gust Speed Precip Events Conditions
12:15 AM 19.4 °F 5.5 °F 14.0 °F 80% 29.62 in 3.0 mi West 15.0 mph 19.6 mph N/A Snow Light Snow
12:35 AM 19.4 °F 5.0 °F 14.0 °F 80% 29.61 in 4.0 mi West 16.1 mph 23.0 mph N/A Snow Light Snow
1:15 AM 19.4 °F 5.5 °F 12.2 °F 74% 29.61 in 5.0 mi West 15.0 mph 24.2 mph N/A Snow Light Snow
1:35 AM 19.4 °F 4.1 °F 12.2 °F 74% 29.61 in 5.0 mi West 18.4 mph 23.0 mph N/A Snow Light Snow
1:55 AM 19.4 °F 4.5 °F 12.2 °F 74% 29.61 in 5.0 mi West 17.3 mph 24.2 mph N/A Snow Light Snow
2:15 AM 19.4 °F 3.2 °F 12.2 °F 74% 29.61 in 5.0 mi West 20.7 mph 25.3 mph N/A Snow Light Snow
2:35 AM 19.4 °F 4.5 °F 12.2 °F 74% 29.61 in 5.0 mi West 17.3 mph - N/A Snow Light Snow
2:55 AM 19.4 °F 5.0 °F 12.2 °F 74% 29.61 in 4.0 mi West 16.1 mph 25.3 mph N/A Snow Light Snow
3:15 AM 19.4 °F 5.0 °F 12.2 °F 74% 29.61 in 5.0 mi West 16.1 mph 27.6 mph N/A Snow Light Snow
3:35 AM 19.4 °F 5.0 °F 12.2 °F 74% 29.62 in 5.0 mi West 16.1 mph - N/A Snow Light Snow
3:55 AM 17.6 °F 2.2 °F 12.2 °F 79% 29.62 in 5.0 mi West 17.3 mph 26.5 mph N/A Snow Light Snow
4:15 AM 17.6 °F 2.7 °F 10.4 °F 73% 29.62 in 4.0 mi West 16.1 mph 28.8 mph N/A Snow Light Snow
4:35 AM 17.6 °F 1.7 °F 10.4 °F 73% 29.63 in 5.0 mi West 18.4 mph 27.6 mph N/A Snow Light Snow
4:55 AM 17.6 °F 0.9 °F 10.4 °F 73% 29.63 in 5.0 mi West 20.7 mph 32.2 mph N/A Snow Light Snow
5:15 AM 17.6 °F 2.2 °F 10.4 °F 73% 29.64 in 5.0 mi West 17.3 mph 25.3 mph N/A   Haze
5:35 AM 17.6 °F 0.9 °F 10.4 °F 73% 29.64 in 5.0 mi West 20.7 mph 29.9 mph N/A Snow Light Snow
5:55 AM 17.6 °F -0.3 °F 8.6 °F 68% 29.66 in 5.0 mi West 24.2 mph 29.9 mph N/A   Haze
6:15 AM 17.6 °F 0.5 °F 8.6 °F 68% 29.66 in 5.0 mi West 21.9 mph 26.5 mph N/A Snow Light Snow
6:35 AM 17.6 °F 1.3 °F 8.6 °F 68% 29.68 in 4.0 mi West 19.6 mph 28.8 mph N/A Snow Light Snow
6:55 AM 17.6 °F 1.3 °F 8.6 °F 68% 29.69 in 4.0 mi West 19.6 mph 28.8 mph N/A Snow Light Snow
7:15 AM 15.8 °F 0.3 °F 8.6 °F 73% 29.70 in 4.0 mi West 16.1 mph 25.3 mph N/A Snow Light Snow
7:35 AM 15.8 °F -1.1 °F 8.6 °F 73% 29.71 in 4.0 mi West 19.6 mph 28.8 mph N/A Snow Light Snow
7:55 AM 15.8 °F -1.1 °F 8.6 °F 73% 29.71 in 2.5 mi West 19.6 mph 28.8 mph N/A Snow Light Snow
8:15 AM 15.8 °F -0.6 °F 8.6 °F 73% 29.72 in 1.8 mi West 18.4 mph 25.3 mph N/A Snow Light Snow
8:35 AM 15.8 °F -1.5 °F 8.6 °F 73% 29.72 in 2.5 mi West 20.7 mph 31.1 mph N/A Snow Light Snow
8:55 AM 17.6 °F 2.2 °F 8.6 °F 68% 29.73 in 2.5 mi West 17.3 mph 28.8 mph N/A   Haze
9:15 AM 17.6 °F 2.7 °F 8.6 °F 68% 29.73 in 4.0 mi West 16.1 mph 29.9 mph N/A   Haze
9:35 AM 17.6 °F -0.3 °F 8.6 °F 68% 29.74 in 3.0 mi West 24.2 mph 33.4 mph N/A   Haze
9:55 AM 17.6 °F 0.5 °F 8.6 °F 68% 29.75 in 2.5 mi WNW 21.9 mph 33.4 mph N/A   Haze
10:15 AM 19.4 °F 1.8 °F 8.6 °F 63% 29.75 in 2.0 mi West 25.3 mph 31.1 mph N/A   Haze
10:35 AM 19.4 °F 3.6 °F 8.6 °F 63% 29.76 in 1.8 mi WNW 19.6 mph 35.7 mph N/A   Haze
10:55 AM 19.4 °F 4.5 °F 8.6 °F 63% 29.77 in 2.5 mi West 17.3 mph 38.0 mph N/A   Haze
11:15 AM 19.4 °F 3.2 °F 8.6 °F 63% 29.78 in 4.0 mi West 20.7 mph 29.9 mph N/A   Haze
11:35 AM 21.2 °F 6.0 °F 8.6 °F 58% 29.79 in 3.0 mi West 19.6 mph 33.4 mph N/A   Haze
11:55 AM 21.2 °F 6.0 °F 8.6 °F 58% 29.80 in 5.0 mi West 19.6 mph 32.2 mph N/A   Haze
12:15 PM 23.0 °F 7.6 °F 10.4 °F 59% 29.80 in 7.0 mi West 21.9 mph 31.1 mph N/A   Clear
12:35 PM 23.0 °F 6.3 °F 10.4 °F 59% 29.81 in 4.0 mi West 26.5 mph 33.4 mph N/A   Haze
12:55 PM 24.8 °F 9.6 °F 8.6 °F 50% 29.81 in 5.0 mi West 23.0 mph 32.2 mph N/A   Haze
1:15 PM 26.6 °F 13.1 °F 10.4 °F 51% 29.81 in 5.0 mi West 19.6 mph 28.8 mph N/A   Haze
1:35 PM 26.6 °F 13.4 °F 10.4 °F 51% 29.82 in 7.0 mi West 18.4 mph 29.9 mph N/A   Clear
1:55 PM 26.6 °F 11.7 °F 10.4 °F 51% 29.82 in 5.0 mi West 24.2 mph 31.1 mph N/A   Haze
2:15 PM 28.4 °F 14.4 °F 10.4 °F 47% 29.82 in 7.0 mi West 23.0 mph 33.4 mph N/A   Clear
2:35 PM 28.4 °F 15.4 °F 8.6 °F 43% 29.83 in 4.0 mi West 19.6 mph 35.7 mph N/A   Haze
2:55 PM 28.4 °F 16.6 °F 8.6 °F 43% 29.84 in 5.0 mi West 16.1 mph 35.7 mph N/A   Haze
3:15 PM 30.2 °F 16.5 °F 8.6 °F 40% 29.84 in 7.0 mi West 24.2 mph 34.5 mph N/A   Clear
3:35 PM 30.2 °F 17.1 °F 8.6 °F 40% 29.84 in 10.0 mi West 21.9 mph 27.6 mph N/A   Clear
3:55 PM 30.2 °F 18.9 °F 8.6 °F 40% 29.85 in 10.0 mi WNW 16.1 mph 25.3 mph N/A   Clear
4:15 PM 30.2 °F 17.8 °F 6.8 °F 37% 29.86 in 10.0 mi WNW 19.6 mph 26.5 mph N/A   Clear
4:35 PM 30.2 °F 17.4 °F 8.6 °F 40% 29.87 in 10.0 mi West 20.7 mph 25.3 mph N/A   Clear
4:55 PM 30.2 °F 18.5 °F 6.8 °F 37% 29.88 in 10.0 mi WNW 17.3 mph 25.3 mph N/A   Clear
5:15 PM 30.2 °F 19.8 °F 6.8 °F 37% 29.89 in 10.0 mi West 13.8 mph 20.7 mph N/A   Clear
5:35 PM 30.2 °F 17.4 °F 6.8 °F 37% 29.90 in 10.0 mi West 20.7 mph 31.1 mph N/A   Clear
5:55 PM 28.4 °F 15.8 °F 5.0 °F 37% 29.90 in 10.0 mi West 18.4 mph 29.9 mph N/A   Clear
6:15 PM 28.4 °F 17.0 °F 5.0 °F 37% 29.91 in 10.0 mi West 15.0 mph 29.9 mph N/A   Clear
6:35 PM 28.4 °F 16.6 °F 6.8 °F 40% 29.92 in 10.0 mi West 16.1 mph 26.5 mph N/A   Clear
6:55 PM 26.6 °F 14.3 °F 5.0 °F 40% 29.93 in 10.0 mi West 16.1 mph 21.9 mph N/A   Clear
7:15 PM 26.6 °F 14.3 °F 5.0 °F 40% 29.94 in 10.0 mi West 16.1 mph 23.0 mph N/A   Clear
7:35 PM 26.6 °F 14.7 °F 5.0 °F 40% 29.94 in 10.0 mi West 15.0 mph 21.9 mph N/A   Clear
7:55 PM 24.8 °F 12.9 °F 5.0 °F 43% 29.95 in 10.0 mi West 13.8 mph 19.6 mph N/A   Clear
8:15 PM 23.0 °F 10.6 °F 5.0 °F 46% 29.95 in 10.0 mi West 13.8 mph 19.6 mph N/A   Clear
8:55 PM 23.0 °F 8.7 °F 5.0 °F 46% 29.96 in 10.0 mi West 18.4 mph - N/A   Clear
9:15 PM 23.0 °F 10.1 °F 5.0 °F 46% 29.96 in 10.0 mi West 15.0 mph 27.6 mph N/A   Clear
9:35 PM 23.0 °F 9.2 °F 5.0 °F 46% 29.96 in 10.0 mi West 17.3 mph 24.2 mph N/A   Clear
9:55 PM 23.0 °F 9.2 °F 5.0 °F 46% 29.96 in 10.0 mi West 17.3 mph 25.3 mph N/A   Clear
10:15 PM 23.0 °F 9.6 °F 5.0 °F 46% 29.96 in 10.0 mi West 16.1 mph 24.2 mph N/A   Clear
10:35 PM 21.2 °F 6.8 °F 3.2 °F 46% 29.96 in 10.0 mi West 17.3 mph 24.2 mph N/A   Clear
10:55 PM 21.2 °F 6.8 °F 3.2 °F 46% 29.96 in 10.0 mi West 17.3 mph 24.2 mph N/A   Clear
11:15 PM 21.2 °F 8.3 °F 5.0 °F 50% 29.96 in 10.0 mi West 13.8 mph - N/A   Clear
11:35 PM 21.2 °F 8.9 °F 5.0 °F 50% 29.96 in 10.0 mi West 12.7 mph 21.9 mph N/A   Clear
11:55 PM 21.2 °F 7.3 °F 3.2 °F 46% 29.96 in 10.0 mi West 16.1 mph 21.9 mph N/A   Clear